Погода в Сомине

Россия / Санкт-Петербург и Ленинградская область     59°20′41″N   34°51′47″E
темп.,
°C
ветер,
м/с
пор.,
м/с
влажн.,
%
обл.,
%
осадки,
мм/ч
давл.,
гПа
погр.,
м
3 августа, вт
вт300:00+17юв41397100 0.5 994632
03:00+17ююз61297100 0.8 993987
06:00+13юз71496100 0.3 9971208
09:00+15зюз6138078 0.4 10001118
12:00+18юз7106445 0.1 10031326
15:00+20юз6104994 0.1 10032154
18:00+20юз595218 0.0 10041840
21:00+15зюз411730 0.0 1006798
4 августа, ср
ср400:00+13зюз398914 0.0 1008457
03:00+11зюз289930 0.0 1010265
06:00+11з379299 0.0 1011398
09:00+16з36605 0.0 10131075
12:00+19з464399 0.0 10132270
15:00+18з2547100 0.0 10141418
18:00+17сз2453100 0.0 1015367
21:00+15з1164100 0.0 101614
5 августа, чт
чт500:00+14зсз116591 0.0 101718
03:00+13ссз1165100 0.0 101816
06:00+13св1163100 0.0 101812
09:00+15в1258100 0.0 1018111
12:00+19юв224136 0.0 1018775
15:00+21юв2234100 0.0 10172422
18:00+19всв2451100 0.0 1017147
21:00+15вюв2261100 0.0 101718
6 августа, пт
пт600:00+15св2260100 0.0 101735
03:00+14в2464100 0.0 1017100
06:00+13вюв2574100 0.2 1017209
09:00+13всв4118599 1.4 1016395
12:00+17в4957100 0.0 1015983
15:00+21в6845100 0.0 10141985
18:00+19вюв4855100 0.0 10141564
21:00+15в41265100 0.0 1015856
7 августа, сб
сб700:00+13в51474100 0.0 1014823
03:00+12в5137996 0.0 1014690
06:00+12в51382100 0.0 1013755
09:00+14в51378100 0.0 1013755
12:00+15в51277100 0.0 1012839
15:00+14в51297100 1.6 1013701
18:00+14в41197100 0.3 1012691
21:00+13в41098100 0.4 1011518